Location: Habighorst
(52.7089°N, 10.2278°E)
Time: 00:00:17
(UTC+00:00)

Thor Agena Rocket - Pass Details

Date: 13 January 2026
Orbit: 755 x 801 km, 99.1° (Epoch: 17 February)

Event Time Altitude Azimuth Distance (km) Brightness Sun altitude
Rises 06:43:20 0° 12° (NNE) 3,236 6.6 -6.2°
Reaches altitude 10° 06:45:42 10° 7° (N) 2,310 5.8 -5.9°
Maximum altitude 06:50:32 46° 295° (WNW) 1,026 3.8 -5.3°
Drops below altitude 10° 06:55:23 10° 223° (SW) 2,321 5.9 -4.6°
Sets 06:57:46 0° 218° (SW) 3,252 6.7 -4.3°
